GFSNGP_850_rhum_015.txt.gz
RH
34 36 29 26 29 29 22 35 45 38 34 27 20 22 20 19 18 18 22 30 34 35 34 37 46 53 56 60 64 58 48 51 49 43 50 55 54 60 70 61 63 62 58 61
42 39 42 38 35 32 31 25 22 24 26 18 19 17 18 19 20 22 22 22 24 30 37 40 47 53 57 60 62 58 49 48 44 42 50 52 67 83 59 52 51 58 56 59
58 49 45 53 37 33 32 29 26 29 24 22 32 28 23 21 21 24 24 25 26 34 42 44 50 54 55 57 61 53 50 48 41 44 50 65 78 81 55 56 51 51 53 54
76 67 51 39 24 20 27 26 27 29 32 29 27 34 34 30 30 30 31 32 32 33 36 44 49 53 56 60 56 50 52 46 42 46 56 75 88 65 52 47 52 50 51 54
72 79 49 33 25 27 24 32 30 34 32 27 24 30 40 35 33 33 33 34 34 32 33 34 39 43 51 57 51 52 48 44 48 53 71 87 79 54 55 48 47 49 52 56
82 80 64 51 28 23 23 52 36 32 37 37 30 70 56 38 37 37 37 38 38 40 39 40 42 45 47 50 50 46 48 52 59 74 97 94 67 47 51 56 54 56 59 61
94 88 74 44 26 23 43 54 32 31 35 35 49 45 37 37 39 42 44 43 41 42 44 46 49 48 47 46 47 49 56 63 82 95 92 73 45 53 59 57 49 41 70 75
98 99 83 28 27 36 55 34 32 32 33 35 37 41 46 47 48 47 46 47 49 50 49 48 46 45 47 47 62 65 78 96 95 93 71 44 69 62 42 37 44 68 77 79
73 81 50 24 28 30 29 30 33 37 44 43 51 55 54 51 49 46 45 46 50 51 51 49 50 52 54 69 73 82 96 97 96 60 39 32 42 38 42 53 71 73 78 81
51 32 34 23 24 30 34 43 49 54 53 55 59 58 54 52 49 46 45 45 48 50 51 52 55 57 60 65 74 92 91 61 51 38 31 32 39 52 69 82 83 76 88 93
51 36 50 54 53 52 52 55 60 60 59 58 58 54 54 51 50 50 52 53 55 59 63 66 76 84 88 87 78 60 47 31 32 34 34 37 43 56 69 86 83 82 67 89
79 53 64 64 60 58 57 58 57 57 57 57 54 57 56 61 66 70 77 82 84 90 94 97 90 74 57 41 34 31 30 35 36 37 38 42 49 55 70 87 96 89 83 80
62 59 58 62 60 60 59 63 63 62 71 72 73 72 78 84 86 86 89 92 88 84 81 69 60 49 44 44 43 46 44 42 43 44 47 52 58 67 75 83 88 85 83 86
64 62 67 66 86 76 73 79 77 77 75 75 75 77 78 79 80 78 77 78 79 71 58 53 55 64 72 69 69 78 78 65 54 53 61 66 72 83 95 97 81 73 70 69
61 65 72 86 84 88 86 81 81 88 94 92 85 87 83 79 75 75 74 71 70 62 52 58 60 58 56 54 56 62 70 81 92 92 90 90 91 96 99 99 98 90 84 84
70 74 80 85 96 94 92 90 88 87 83 82 77 76 69 67 66 63 61 51 46 54 56 59 67 79 80 80 82 81 84 88 99 100 100 100 98 94 95 94 90 81 80 86
75 90 90 96 95 94 92 89 83 80 79 70 51 40 36 40 45 46 50 54 60 74 95 99 100 100 100 100 99 87 64 53 59 88 98 100 99 95 95 91 84 85 95 78
74 83 87 94 94 90 88 83 78 58 42 44 50 50 49 49 52 50 41 34 38 86 99 94 92 85 82 69 47 39 48 56 55 56 57 59 66 86 97 100 100 96 98 99
88 92 97 93 86 82 69 52 47 50 57 59 57 53 43 33 30 30 37 45 48 64 68 91 87 76 44 28 36 40 45 53 73 92 98 93 90 89 84 87 90 98 99 96
91 86 86 87 69 46 47 55 60 61 62 59 45 37 36 36 34 38 55 69 86 96 98 70 37 23 31 37 43 55 77 100 96 90 96 99 100 100 100 100 97 100 98 98
83 69 47 43 48 58 66 70 64 62 56 48 46 44 38 33 30 35 34 60 76 76 51 31 28 34 49 57 63 71 82 91 95 95 97 98 96 95 97 98 99 98 98 98
48 49 53 55 56 58 66 69 68 61 55 52 49 43 33 28 29 38 58 71 67 43 32 42 42 47 59 67 69 76 85 88 92 94 95 95 96 96 96 96 97 95 96 97
57 60 66 70 71 70 76 72 67 64 60 55 44 36 34 34 40 46 58 62 60 48 47 71 77 65 62 68 72 77 86 88 90 95 97 98 98 97 96 96 96 96 95 96
61 74 83 91 88 85 80 76 75 73 67 56 48 46 38 39 50 60 64 64 64 68 72 80 87 85 78 75 78 82 87 94 95 95 94 97 97 97 96 96 96 97 96 96
75 93 94 89 87 84 79 75 78 67 50 38 42 49 64 79 82 83 81 74 75 85 88 88 88 90 86 88 87 92 97 97 99 94 92 94 95 97 97 97 97 97 97 97
100 96 97 91 88 83 65 39 32 38 35 35 50 55 80 94 94 89 87 86 78 88 96 88 88 88 92 95 97 96 96 92 95 89 94 96 97 98 96 95 95 96 93 88
98 97 96 94 84 51 31 27 24 26 42 71 82 70 93 100 98 91 91 88 84 98 94 91 91 89 95 100 100 94 92 92 94 89 94 95 96 98 99 99 99 97 94 90

GFSNGP_850_rhum_021.txt.gz
RH
35 32 37 33 34 38 38 38 47 40 48 34 26 26 25 21 23 26 37 45 49 54 57 59 66 70 68 69 70 73 68 75 73 62 63 62 60 53 54 60 62 61 62 92
47 43 42 37 36 38 38 33 39 35 34 33 30 30 32 27 28 34 35 37 41 44 48 46 46 50 63 70 75 75 75 70 61 64 64 60 55 56 56 66 69 66 93 94
50 54 46 61 46 39 34 33 33 40 34 36 42 42 44 38 35 35 34 33 33 33 34 34 36 42 44 48 60 69 66 63 64 66 63 57 56 61 68 68 81 92 96 73
72 64 69 42 36 34 36 37 36 39 43 45 48 43 40 37 36 38 37 35 34 34 35 36 37 39 44 53 60 66 67 69 70 65 61 60 64 70 79 97 96 97 95 56
73 76 53 39 32 39 37 36 36 48 53 53 48 42 48 41 37 37 37 37 38 39 40 40 38 40 52 59 68 72 71 70 67 65 66 77 96 100 98 97 97 92 58 56
88 70 69 53 37 28 36 58 36 42 51 53 42 70 60 48 42 40 41 43 44 44 45 45 46 45 50 70 75 77 72 69 70 76 83 84 92 98 98 95 95 59 52 40
96 80 66 45 35 26 42 48 37 37 38 40 52 48 48 49 46 46 46 48 49 50 50 49 49 49 61 73 75 74 71 72 77 80 93 98 97 96 100 96 67 45 33 28
92 77 58 37 36 35 42 42 34 38 38 40 45 51 50 50 50 51 52 53 53 52 51 54 59 62 67 71 72 68 66 69 84 98 99 100 100 99 87 59 40 38 38 38
70 68 46 39 31 25 31 33 36 35 37 38 52 52 52 54 55 56 55 55 55 54 55 60 63 63 65 73 76 79 85 97 97 97 90 69 58 46 39 40 40 40 46 40
62 51 51 41 38 34 33 33 36 38 46 48 50 53 55 56 56 56 56 54 54 55 59 67 74 76 80 85 82 70 53 39 35 35 37 39 39 39 41 40 43 46 48 46
70 73 68 58 43 36 36 39 43 52 55 52 51 58 58 60 59 59 62 71 75 77 81 80 70 56 46 42 39 38 40 44 48 52 54 50 49 52 53 52 56 59 59 59
76 60 51 63 58 52 50 58 59 58 58 58 58 59 60 63 71 79 83 86 79 72 66 64 57 54 55 53 50 46 46 47 48 50 50 53 54 49 49 54 62 76 85 89
44 48 52 62 66 63 58 60 60 58 60 61 64 64 70 83 88 80 73 71 66 63 60 60 61 61 58 54 51 50 52 54 56 59 62 68 71 77 69 48 60 62 76 85
44 48 79 72 73 69 64 66 66 67 70 72 78 82 80 77 80 79 78 75 70 64 56 59 59 56 58 62 65 67 68 70 64 55 43 32 26 25 29 37 54 32 78 100
65 56 57 72 74 76 76 78 77 78 79 78 77 75 74 75 75 76 76 73 65 54 52 59 62 66 67 58 50 43 38 30 19 14 14 18 22 27 34 45 57 62 39 30
77 70 78 76 85 84 79 76 74 81 80 82 78 77 75 76 76 70 56 54 53 46 49 55 56 55 52 43 31 16 12 13 15 18 21 28 37 48 61 76 86 99 100 99
87 100 95 94 87 85 82 81 80 81 82 79 77 73 63 52 47 48 48 47 43 43 47 52 48 41 29 15 12 12 14 15 18 25 34 46 61 72 82 88 100 100 99 100
66 72 77 75 84 85 85 82 80 77 73 65 49 46 46 46 37 33 37 42 45 55 49 38 31 21 14 14 15 16 18 23 30 42 54 64 73 80 84 91 94 96 94 91
76 82 85 85 84 83 84 82 76 68 48 44 47 46 36 35 39 41 45 48 43 35 32 27 20 17 18 18 19 25 30 35 41 49 58 65 71 78 82 85 86 88 92 94
88 87 86 88 88 84 82 75 53 46 52 51 41 38 41 43 39 36 33 30 32 32 30 25 22 22 22 23 25 32 39 44 48 53 60 64 69 73 80 84 88 89 91 92
92 92 91 90 84 76 53 48 51 53 50 42 43 47 46 41 37 32 33 31 31 30 26 28 27 26 26 28 36 41 46 49 51 56 63 66 68 72 77 81 84 89 92 93
99 99 97 82 62 59 65 65 59 51 47 49 51 49 40 35 35 33 30 33 37 36 36 35 35 34 36 39 45 47 50 55 58 63 65 68 72 75 78 81 84 86 90 94
99 98 84 63 62 66 71 66 59 57 59 60 54 42 36 34 32 34 41 46 51 54 52 48 48 49 48 49 51 54 58 62 63 66 71 75 78 81 81 82 86 89 91 91
94 70 72 76 71 68 66 67 68 70 68 60 51 42 35 33 39 47 58 73 82 76 71 66 65 62 56 54 56 61 65 67 68 72 76 77 79 78 74 73 75 77 82 86
70 74 76 80 89 78 78 80 80 80 74 57 48 44 42 50 59 68 80 87 87 80 75 70 67 64 62 60 64 68 68 72 76 77 77 75 72 72 72 73 74 75 76 78
93 90 95 97 94 95 95 95 94 84 59 49 49 57 64 69 75 85 93 96 91 81 70 70 70 68 69 73 73 73 74 80 83 78 74 75 76 76 76 77 78 78 79 80
97 96 96 96 96 96 96 92 63 40 36 42 60 68 77 82 92 97 97 96 90 79 70 68 71 79 82 79 77 78 82 85 77 73 75 78 81 80 80 80 82 83 84 85

GFSNGP_850_rhum_024.txt.gz
RH
37 36 41 39 34 47 44 44 49 41 46 35 34 30 27 24 24 31 38 42 46 48 56 65 68 72 73 68 71 78 84 92 89 84 82 83 74 63 54 55 50 61 60 67
45 46 42 41 39 43 41 39 41 40 40 35 30 34 34 32 39 42 44 42 41 41 40 42 42 43 45 46 52 63 74 79 83 82 83 87 74 55 56 53 58 63 70 98
50 54 45 61 50 44 43 40 39 46 38 38 40 46 45 40 40 40 38 36 34 34 33 32 31 30 31 37 46 61 77 84 81 82 85 90 63 57 58 60 65 76 99 95
75 64 64 41 38 36 41 38 37 36 38 43 46 45 44 42 39 39 37 36 37 38 38 37 37 37 38 43 52 63 76 84 86 85 80 67 69 69 68 73 81 94 94 99
70 74 51 39 39 42 41 38 41 43 56 52 50 49 54 46 42 41 42 43 43 43 44 44 43 43 43 46 62 75 81 83 82 80 79 80 76 75 92 99 96 95 99 99
80 70 67 52 37 31 32 49 44 52 63 61 50 67 65 52 48 47 47 46 46 46 48 48 49 49 50 60 75 82 83 81 82 83 83 85 98 98 97 97 99 100 100 98
95 79 72 51 34 28 44 48 39 44 50 51 48 41 49 52 50 48 47 48 50 52 52 52 55 60 62 72 78 82 82 83 85 86 86 89 97 100 100 100 99 91 75 59
88 80 75 37 38 43 44 32 34 40 43 43 41 48 50 50 49 51 52 53 54 53 55 60 64 66 72 75 83 84 84 84 86 91 97 100 99 95 82 67 57 48 44 36
70 72 49 38 35 25 24 29 34 37 38 34 39 48 51 53 55 55 56 56 57 56 58 65 69 70 70 84 90 92 93 83 59 47 44 48 46 42 39 39 42 43 44 41
60 53 57 44 36 33 31 28 30 32 34 35 37 51 54 58 59 58 58 58 59 61 65 72 77 76 76 75 62 48 40 36 35 34 34 38 41 44 47 47 51 54 57 59
66 71 68 54 44 38 36 34 34 36 35 38 43 56 57 60 60 60 60 66 73 75 76 73 65 56 49 46 44 40 40 40 41 44 47 48 52 58 61 64 78 83 87 94
72 53 44 39 41 41 38 38 40 40 53 53 51 55 60 62 63 69 78 83 78 73 67 62 56 53 52 51 47 45 47 51 54 56 58 58 53 44 36 29 23 21 23 59
42 42 46 44 50 49 47 54 57 57 55 55 60 61 63 68 84 87 82 73 65 61 59 60 60 58 54 52 56 58 57 51 42 32 21 13 11 10 8 8 12 14 21 28
40 46 71 66 63 64 57 62 63 61 62 63 64 68 76 82 83 76 71 67 63 62 61 61 58 56 56 59 50 36 29 20 12 9 9 10 11 14 17 18 16 17 32 52
61 48 42 58 69 69 65 65 65 67 69 73 78 78 79 78 78 76 74 73 69 61 58 64 62 56 46 37 26 15 11 10 9 10 12 14 18 22 29 39 47 53 49 53
71 62 67 67 76 76 72 71 68 80 81 83 80 78 79 78 76 75 73 65 60 56 53 47 45 37 28 18 13 11 11 11 12 14 17 20 24 30 38 49 62 73 76 81
79 100 95 95 83 84 79 78 74 77 78 77 79 78 76 75 72 59 58 63 60 44 45 42 32 25 16 13 12 12 13 15 16 19 22 27 35 43 54 64 70 74 78 79
63 66 78 70 79 81 81 77 76 79 80 80 80 80 67 52 46 50 45 48 48 45 36 31 24 16 14 14 14 15 17 19 22 27 33 38 44 52 58 64 69 72 74 77
76 78 82 81 80 79 81 83 81 80 82 73 56 49 46 41 38 44 48 49 41 33 31 25 19 16 16 16 17 20 23 26 31 36 40 45 50 55 58 62 66 71 75 77
86 82 82 83 86 94 94 92 85 69 67 68 60 44 40 47 50 45 41 37 32 28 25 23 20 20 20 21 23 27 32 35 37 43 49 52 54 58 63 67 70 72 74 77
88 89 93 100 100 99 98 97 93 78 59 48 40 43 47 47 44 37 33 32 31 29 27 23 22 23 24 27 32 35 38 42 46 50 52 54 58 62 66 69 70 73 76 79
100 100 99 99 98 96 95 89 65 52 48 47 48 49 48 44 40 37 33 34 35 35 31 28 29 30 33 35 41 44 47 50 53 56 57 58 63 66 68 68 66 66 68 69
99 99 98 98 97 95 90 67 56 50 48 51 53 50 41 39 37 37 38 42 41 41 38 36 40 46 49 50 50 52 56 58 60 60 62 66 71 70 67 66 67 70 69 69
98 98 97 97 94 82 65 60 58 61 63 62 55 47 44 40 41 43 45 52 55 57 56 52 55 62 65 64 64 64 64 64 64 66 70 73 70 68 71 73 74 74 75 74
98 97 97 97 88 80 78 76 78 79 77 69 59 53 47 45 45 48 54 60 69 75 73 65 65 73 80 78 74 71 69 69 70 74 75 67 65 70 76 77 78 78 78 79
97 97 97 96 96 96 96 95 96 95 94 71 56 52 53 53 57 61 67 80 88 87 79 73 73 82 87 83 78 75 73 74 77 78 68 68 74 76 74 73 77 80 81 82
96 96 96 96 96 96 96 96 95 95 95 95 93 68 60 66 76 84 91 95 96 90 83 78 77 82 85 84 80 79 80 80 78 64 67 73 69 58 55 56 60 70 80 86

GFSNGP_850_rhum_027.txt.gz
RH
35 30 36 34 36 43 38 40 46 37 40 29 28 27 28 27 29 40 50 52 56 57 58 62 64 66 66 68 68 69 71 75 79 86 93 95 90 88 82 78 67 45 48 60
39 44 42 42 39 39 39 41 40 37 38 30 30 32 35 38 49 52 52 49 47 44 43 41 38 37 36 35 36 40 49 63 75 83 87 88 88 86 76 67 50 50 59 62
48 54 46 60 51 43 42 39 38 44 35 33 34 41 41 53 49 46 43 40 38 37 35 35 35 35 36 36 38 42 48 61 74 84 88 88 85 86 80 69 56 58 64 89
67 62 68 37 39 36 38 38 36 36 34 34 38 53 52 47 42 43 42 40 40 41 41 41 41 40 41 40 42 51 62 74 84 89 90 91 93 89 73 66 66 84 85 97
74 62 48 37 40 40 40 29 34 34 38 46 58 56 60 51 46 43 42 43 43 45 45 46 45 45 45 44 54 68 78 83 84 84 82 81 79 76 85 88 97 98 100 98
72 63 61 46 35 35 31 42 35 38 49 53 56 55 50 53 50 48 47 48 49 50 51 51 50 50 50 53 66 74 81 82 84 85 85 82 85 86 89 96 99 100 99 100
75 72 61 44 36 29 47 39 37 41 50 54 47 43 47 52 52 51 53 54 56 56 53 54 56 59 55 67 71 82 87 89 90 90 90 91 95 99 100 100 100 97 90 73
78 80 63 42 37 45 41 31 29 46 49 54 39 48 52 54 54 56 57 58 57 54 56 60 63 62 67 72 83 84 84 84 89 96 98 95 83 69 60 54 48 42 40 38
63 63 53 36 32 26 24 26 33 41 48 43 45 55 56 58 61 61 60 58 59 56 58 65 68 70 72 87 92 92 86 67 51 40 36 34 36 37 38 44 49 51 53 54
58 51 51 39 32 32 28 26 30 37 39 40 41 55 61 64 64 62 62 62 62 62 68 77 82 77 75 70 55 45 40 38 38 40 42 44 47 50 53 55 54 54 50 46
61 53 65 50 42 32 32 31 34 40 41 40 38 58 61 64 64 65 65 66 67 68 72 69 63 57 52 50 49 42 41 40 41 42 42 41 37 28 19 12 12 13 22 27
62 37 39 36 29 35 36 35 35 36 45 47 44 50 61 64 65 65 68 76 76 73 67 63 58 53 51 48 44 43 44 40 31 22 16 12 10 8 8 9 10 12 16 23
41 34 36 31 34 36 37 37 39 40 39 45 56 56 61 62 68 75 80 78 72 63 59 59 57 51 48 48 45 35 25 19 13 11 9 8 8 9 10 11 11 13 17 27
38 43 53 47 51 48 42 45 49 51 51 53 58 63 63 68 83 81 76 68 62 58 59 60 57 52 50 40 28 20 14 12 10 8 8 9 9 10 12 14 19 24 30 37
55 48 51 44 50 55 55 55 62 62 62 65 67 66 72 83 83 76 71 67 64 61 57 60 56 42 33 24 18 14 12 9 8 10 11 12 13 14 16 21 26 31 34 38
65 68 57 60 63 68 67 70 63 72 72 73 75 83 85 81 77 76 74 72 61 56 55 47 39 29 23 17 14 11 10 10 11 13 14 16 18 21 26 30 35 39 43 48
73 90 95 86 86 86 81 78 70 72 76 80 85 84 82 80 78 74 71 66 59 50 42 37 29 23 17 15 12 11 12 14 15 17 19 22 26 31 36 41 45 49 51 54
67 67 72 80 81 80 84 82 81 84 87 87 85 88 84 81 81 64 67 59 50 45 36 30 25 19 16 14 13 14 16 18 20 22 26 30 34 39 44 48 52 54 56 58
95 81 81 86 88 81 84 90 90 92 96 98 97 94 85 74 85 56 48 50 45 36 32 27 22 18 16 16 17 19 22 25 27 30 34 38 43 47 50 54 57 60 61 61
84 83 88 92 90 83 85 92 98 98 98 97 96 96 96 79 50 50 53 46 38 33 30 27 22 20 20 20 21 24 28 32 34 38 42 46 49 53 57 60 62 60 58 56
97 96 94 91 93 98 99 98 98 97 98 97 95 88 56 57 61 54 47 41 37 34 32 29 26 25 26 26 28 32 37 40 43 46 50 53 57 62 64 63 59 57 58 59
100 99 99 99 98 98 98 98 97 96 95 91 69 52 56 58 57 47 44 39 38 39 38 36 34 32 32 36 42 44 46 49 53 56 59 62 66 67 65 59 59 61 64 64
99 98 98 98 98 97 97 97 97 95 75 62 58 58 56 54 52 47 44 45 47 51 51 48 44 41 43 49 53 54 55 58 60 64 68 71 72 67 61 62 67 69 68 68
98 98 98 98 97 97 95 95 81 70 61 61 59 58 56 53 50 48 51 58 65 68 62 55 51 51 54 59 62 63 63 65 68 73 77 79 72 63 65 70 69 68 68 71
98 97 97 97 97 96 92 81 82 93 94 93 88 70 59 56 58 62 66 70 73 73 68 62 59 58 62 67 71 72 73 75 78 80 82 75 64 65 69 60 54 52 55 65
97 96 96 96 96 96 96 96 96 96 96 95 95 95 95 95 94 84 76 80 79 78 73 69 69 69 71 75 78 82 84 85 86 86 79 66 67 68 59 55 57 59 56 54
95 96 96 95 96 96 95 95 95 95 95 95 95 95 96 95 91 88 87 85 82 80 82 81 79 77 78 81 84 87 89 90 91 86 65 61 65 61 60 59 61 65 66 60